sat.trackr.live / text

‹ back to catalog

STARLINK-31395

NORAD 59180 · 2024-045C

PAYLOAD ACTIVE UNKNOWN

§ Identity

Operator
Country
US
Launch date
2024-03-10
Launch site
AFETR
Launch vehicle
Mass (kg)
RCS (m²)

Purposes: comms

External: N2YO · Heavens-Above · Gunter

§ Orbital elements

Epoch: 2026-09-19T19:17:07.254816Z

Period
94.27 min
Inclination
43.0037°
Eccentricity
0.0001213
Mean motion
15.27580513 rev/d
Perigee alt
482.2 km
Apogee alt
483.9 km
Semi-major
6,861.2 km
B*
4.3432e-5
RAAN
76.7183°
Arg perigee
277.7047°
Mean anomaly
82.3667°
Rev number
14,284

§ Raw data

STARLINK-313951 59180U 24045C   26262.80355619  .00000933  00000+0  43432-4 0  99972 59180  43.0037  76.7183 0001213 277.7047  82.3667 15.27580513142843

JSON: /api/v1/satellites/59180 · /tle

For live sub-satellite position, see the globe view (requires WebGL).

§ Visibility from observer

Set your observer location to see the next 7 days of passes ≥ 10°. The values pass through the URL so the page stays shareable.

No JS? Fill the form by hand. The geolocation button needs JavaScript.